This demonstration page uses our WeatherBlox Daily Observations layout. Learn more.

Hourly Observations for March 3, 2019

Temp ( °F °C ) Dew Point ( °F °C ) Humidity (%) Winds ( mph kmh ) Pressure ( in mb ) Visibility ( mi km ) Precip ( " mm )
12:15 am 00:15 Cloudy with Light Snow 6 -14.6 3 -16.3 87 87 N 18 30 30.62 1037 1.75 2.816345 0 0
12:35 am 00:35 Windy with Snow Likely 5 -15 2 -16.9 86 86 NNE 24 39 30.63 1037 2.5 4.02335 0 0
12:55 am 00:55 Windy with Snow Likely 5 -15.2 1 -17 86 86 N 21 33 30.64 1038 2.5 4.02335 0 0
1:15 am 01:15 Cloudy with Light Snow 4 -15.6 0 -17.6 85 85 N 18 30 30.66 1038 2 3.21868 0 0
1:35 am 01:35 Windy with Snow Likely 4 -15.7 0 -17.7 85 85 N 21 33 30.66 1038 2.5 4.02335 0 0
1:55 am 01:55 Cloudy with Light Snow 3 -16.1 0 -18 85 85 N 18 30 30.67 1039 1.5 2.41401 0 0
2:15 am 02:15 Cloudy with Light Snow 3 -16.1 0 -18 85 85 NNE 17 28 30.68 1039 2 3.21868 0 0
2:35 am 02:35 Windy with Snow Likely 3 -16.3 -1 -18.1 86 86 N 20 31 30.68 1039 2.5 4.02335 0 0
2:55 am 02:55 Cloudy 2 -16.6 -2 -18.7 84 84 N 20 31 30.69 1039 N/A 0 0
3:15 am 03:15 Cloudy 1 -17 -2 -19 85 85 N 26 43 30.68 1039 N/A 0 0
3:35 am 03:35 Cloudy 1 -17 -2 -19 85 85 N 23 37 30.68 1039 N/A 0 0
3:55 am 03:55 undefined 1 -17.3 -3 -19.5 83 83 N 20 31 30.7 1039 N/A 0 0
4:15 am 04:15 Cloudy 0 -17.7 -3 -19.7 85 85 N 22 35 30.7 1040 N/A 0 0
4:35 am 04:35 undefined 0 -17.9 -4 -19.8 85 85 N 18 30 30.7 1040 N/A 0 0
4:55 am 04:55 undefined 0 -18 -4 -20.1 84 84 N 21 33 30.71 1040 N/A 0 0
5:15 am 05:15 undefined 0 -18 -4 -20.2 83 83 N 17 28 30.72 1040 N/A 0 0
5:35 am 05:35 undefined -1 -18.1 -5 -20.3 83 83 N 17 28 30.72 1040 N/A 0 0
5:55 am 05:55 undefined -1 -18.2 -5 -20.5 82 82 N 20 31 30.73 1040 N/A 0 0
6:15 am 06:15 undefined -1 -18.3 -5 -20.6 82 82 N 21 33 30.73 1041 N/A 0 0
6:35 am 06:35 undefined -1 -18.5 -5 -20.7 83 83 N 20 31 30.74 1041 N/A 0 0
6:55 am 06:55 Cloudy -2 -18.8 -6 -21.1 82 82 N 15 24 30.74 1041 N/A 0 0
7:15 am 07:15 undefined -3 -19.2 -7 -21.6 81 81 N 15 24 30.76 1042 N/A 0 0
7:35 am 07:35 Partly Cloudy -3 -19.5 -8 -22 81 81 N 13 20 30.76 1042 N/A 0 0
7:55 am 07:55 Mostly Cloudy -3 -19.4 -8 -22 80 80 N 15 24 30.76 1042 N/A 0 0
8:15 am 08:15 Mostly Cloudy -3 -19.5 -8 -22.2 79 79 N 14 22 30.77 1042 N/A 0 0
8:35 am 08:35 Mostly Cloudy -3 -19.3 -8 -22.4 77 77 N 13 20 30.78 1042 N/A 0 0
8:55 am 08:55 Cloudy -2 -19 -8 -22.1 77 77 N 12 19 30.79 1043 N/A 0 0
9:15 am 09:15 Cloudy -1 -18.6 -8 -22.1 74 74 N 17 28 30.78 1042 N/A 0 0
9:35 am 09:35 Cloudy -1 -18.5 -8 -22.3 72 72 N 16 26 30.78 1042 N/A 0 0
9:55 am 09:55 Cloudy -1 -18.4 -8 -22.1 73 73 N 13 20 30.77 1042 N/A 0 0
10:15 am 10:15 Cloudy -1 -18.1 -7 -21.7 74 74 N 13 20 30.77 1042 N/A 0 0
10:35 am 10:35 Cloudy 0 -18 -8 -22 71 71 N 14 22 30.76 1042 N/A 0 0
10:55 am 10:55 Mostly Cloudy 0 -17.7 -9 -22.5 66 66 N 15 24 30.75 1041 N/A 0 0
11:15 am 11:15 Partly Cloudy 1 -17.4 -8 -22.2 66 66 NNW 13 20 30.75 1041 N/A 0 0
11:35 am 11:35 Sunny 1 -17.3 -8 -22.3 65 65 N 13 20 30.75 1041 N/A 0 0
11:55 am 11:55 Sunny 2 -16.8 -7 -21.6 67 67 NNW 12 19 30.74 1041 N/A 0 0
12:15 pm 12:15 Partly Cloudy 3 -16.2 -6 -21.1 66 66 NNW 10 17 30.73 1041 N/A 0 0
12:35 pm 12:35 Cloudy 3 -16 -7 -21.5 63 63 NNW 12 19 30.72 1040 N/A 0 0
12:55 pm 12:55 Cloudy 4 -15.6 -6 -21.1 63 63 NNW 13 20 30.72 1040 N/A 0 0
1:15 pm 13:15 Cloudy 4 -15.6 -7 -21.4 61 61 NNW 12 19 30.71 1040 N/A 0 0
1:35 pm 13:35 Cloudy 4 -15.3 -7 -21.6 59 59 NNW 12 19 30.69 1039 10 16.0934 0 0
1:55 pm 13:55 Cloudy 5 -15.2 -7 -21.9 57 57 NNW 16 26 30.68 1039 10 16.0934 0 0
2:15 pm 14:15 Cloudy 4 -15.4 -8 -22.1 57 57 N 12 19 30.67 1039 10 16.0934 0 0
2:35 pm 14:35 Cloudy 5 -15 -6 -21.1 60 60 NNW 10 17 30.65 1038 10 16.0934 0 0
2:55 pm 14:55 Cloudy 5 -15.1 -7 -21.7 57 57 NW 10 17 30.65 1038 10 16.0934 0 0
3:15 pm 15:15 Cloudy 5 -15.1 -6 -21.3 59 59 NNW 10 17 30.65 1038 10 16.0934 0 0
3:35 pm 15:35 Partly Cloudy 6 -14.7 -6 -21.3 58 58 NW 9 15 30.66 1038 10 16.0934 0 0
3:55 pm 15:55 Sunny 6 -14.5 -7 -21.8 54 54 NW 12 19 30.65 1038 10 16.0934 0 0
4:15 pm 16:15 Sunny 6 -14.7 -6 -21.3 58 58 NW 12 19 30.65 1038 10 16.0934 0 0
4:35 pm 16:35 Sunny 6 -14.6 -6 -21.1 58 58 NNW 9 15 30.65 1038 10 16.0934 0 0
4:55 pm 16:55 Sunny 5 -14.9 -7 -21.5 57 57 NW 10 17 30.65 1038 10 16.0934 0 0
5:15 pm 17:15 Sunny 4 -15.3 -6 -21.2 61 61 NW 8 13 30.64 1038 10 16.0934 0 0
5:35 pm 17:35 Sunny 3 -16 -6 -21.2 65 65 NW 9 15 30.65 1038 10 16.0934 0 0
5:55 pm 17:55 Sunny 3 -16 -7 -21.4 63 63 NW 5 7 30.65 1038 10 16.0934 0 0
6:15 pm 18:15 Sunny 2 -16.6 -6 -21.3 67 67 NW 5 7 30.66 1038 10 16.0934 0 0
6:35 pm 18:35 Clear 2 -16.8 -7 -21.5 67 67 NW 5 7 30.67 1039 10 16.0934 0 0
6:55 pm 18:55 Clear 1 -17.2 -7 -21.7 68 68 NW 7 11 30.67 1039 10 16.0934 0 0
7:15 pm 19:15 Clear 1 -17.4 -7 -21.7 69 69 NW 6 9 30.68 1039 10 16.0934 0 0
7:35 pm 19:35 Clear 0 -17.7 -8 -22 69 69 NW 3 6 30.68 1039 10 16.0934 0 0
7:55 pm 19:55 Clear -1 -18.2 -9 -22.5 69 69 Calm 30.69 1039 10 16.0934 0 0
8:15 pm 20:15 Clear -3 -19.2 -10 -23.4 70 70 WNW 3 6 30.7 1040 10 16.0934 0 0
8:35 pm 20:35 Clear -3 -19.6 -10 -23.6 71 71 W 6 9 30.7 1040 10 16.0934 0 0
8:55 pm 20:55 Clear -5 -20.4 -12 -24.3 71 71 W 7 11 30.71 1040 10 16.0934 0 0
9:15 pm 21:15 Clear -6 -21.1 -12 -24.6 74 74 W 8 13 30.73 1041 10 16.0934 0 0
9:35 pm 21:35 Clear -4 -20 -11 -23.7 73 73 W 8 13 30.72 1040 10 16.0934 0 0
9:55 pm 21:55 Clear -3 -19.6 -10 -23.4 72 72 W 7 11 30.72 1040 10 16.0934 0 0
10:15 pm 22:15 Clear -4 -20.2 -11 -23.8 73 73 W 8 13 30.74 1041 10 16.0934 0 0
10:35 pm 22:35 Clear -3 -19.5 -10 -23.5 71 71 W 9 15 30.72 1040 10 16.0934 0 0
10:55 pm 22:55 Clear -4 -20.2 -12 -24.3 70 70 W 10 17 30.73 1041 10 16.0934 0 0
11:15 pm 23:15 Clear -3 -19.3 -11 -23.7 68 68 WNW 8 13 30.72 1040 10 16.0934 0 0
11:35 pm 23:35 Clear -4 -19.8 -12 -24.3 68 68 WNW 8 13 30.71 1040 10 16.0934 0 0
11:55 pm 23:55 Clear -8 -22.2 -15 -26 71 71 WNW 6 9 30.74 1041 10 16.0934 0 0

Powered by AerisWeather